Yaogan 35 01 zu 02 xing

operational
NORAD ID: 49393 Int'l Des: 2021-101 Owner: ZZB Country: CN Constellation: yaogan
LEOCIRCULAR

Über Yaogan 35 01 zu 02 xing

Beschreibung wird geladen...

Live-Position

3D-Globus wird geladen...

Nächste Überflüge

Höhenverlauf

Altitude vs Time

uPlot chart will show altitude changes over time

Zweizeiliger Elementsatz

1 49393U 21101D 26062.68150447 .00019465 00000-0 80454-3 0 9993
2 49393 35.0029 208.4527 0009046 193.8021 166.2448 15.23083874240918
Epoch: 3. März 2026 • Age: 23 hours

Aktueller Status

Höhe 496.7 km
Geschwindigkeit 7.62 km/s
Subsatellitenpunkt 33.39°N, 168.81°E
Startdatum 6. Nov. 2021
Alter 4.3 years
Typ military

Technische Details

Klassifizierung Payload
Masse 300.00 kg
Trockenmasse 300.00 kg
Gesamtmasse 300.00 kg
Länge 2.50 m
Durchmesser 2.50 m
Spannweite 5.00 m
Form Box + 2 Pan
Hersteller DFHZ
Phasenstatus In Orbit
Besitzer/Staat ZZB/CN

Große Konstellationen

Loading constellations...